Find Local Weather

World > North America > United States > Washington

Sunnyside, Washington Regional Weather

Lat: 46.32N, Lon: 120.01W
Wx Zone: WAZ027
Feedback
Expires:201806250800;;078032
ASUS46 KSEW 250710
RWRWA 

WASHINGTON REGIONAL WEATHER ROUNDUP
NATIONAL WEATHER SERVICE SEATTLE WA
1200 AM PDT MON JUN 25 2018

NOTE:"FAIR" INDICATES FEW OR NO CLOUDS BELOW 12,000 FEET WITH NO 
SIGNIFICANT WEATHER AND/OR OBSTRUCTIONS TO VISIBILITY.


WAZ026-027-041>044-520-521-250800-
EAST SLOPES
  
CITY           SKY/WX    TMP DP  RH WIND       PRES   REMARKS
OMAK           MOCLDY    74  51  44 SW8       29.69F                  
WENATCHEE      MOCLDY    76  51  41 E12       29.67F                  
ELLENSBURG     MOCLDY    70  52  52 NW17G23   29.73F                  
YAKIMA         PTCLDY    66  51  58 NW5       29.70F                  
SUNNYSIDE ARPT MOSUNNY   66  52  61 CALM      29.68S                  
YAKIMA TC        N/A     70  42  35 CALM      29.69F                  
$$


SKY/WX - Weather  TMP - Temperature  DP - Dewpoint  RH - Relative Humidity
WIND - Wind Direction/Speed PRES - Barometric Pressure